Anaktuvuk Pass, AK

8:30 AM AKDT on July 23, 2016 (GMT -0800)
Anaktuvuk Pass

Weather History for PAKP - January, 2013

Change the Weather History Date:

Tuesday, January 8, 2013

  Actual Average Record
Temperature  
Mean Temperature -22 °F -  
Max Temperature -18 °F -1 °F 17 °F (2005)
Min Temperature -25 °F -13 °F -36 °F (1997)
Degree Days  
Heating Degree Days 86    
Moisture  
Dew Point -28 °F    
Average Humidity 64    
Maximum Humidity 70    
Minimum Humidity 58    
Precipitation  
Precipitation 0.00 in - - ()
Sea Level Pressure  
Sea Level Pressure 29.70 in    
Wind  
Wind Speed 5 mph (North)    
Max Wind Speed 8 mph    
Max Gust Speed -    
Visibility 10 miles    
Events      
Averages and records for this station are not official NWS values.
T = Trace of Precipitation, MM = Missing Value Source: NWS Daily Summary

Daily Weather History Graph

Daily Weather History Graph

Search for Another Location

Airport or City:

Trip Planner

Search our weather history database for the weather conditions in past years. The results will help you decide how hot, cold, wet, or windy it might be!

Date:

Astronomy

Jan. 08, 2013 Rise Set
Actual Time 12:18 PM AKST 2:10 PM AKST
Civil Twilight 10:15 AM AKST 4:13 PM AKST
Nautical Twilight 8:50 AM AKST 5:37 PM AKST
Astronomical Twilight 7:41 AM AKST 6:47 PM AKST
Moon 8:41 AM AKST (1/8) 11:40 AM AKST (1/8)
Length of Visible Light 5h 58m
Length of Day
1h 51m
Waning Crescent, 12% of the Moon is Illuminated
Jan 8
Waning Crescent
Jan 11
New
Jan 18
First Quarter
Jan 26
Full
Feb 3
Last Quarter

Hourly Weather History & Observations

Time (AKST) Temp. Windchill Dew Point Humidity Pressure Visibility Wind Dir Wind Speed Gust Speed Precip Events Conditions
12:16 AM -20.2 °F -35.5 °F - N/A% 29.54 in 10.0 mi North 5.8 mph - N/A   Mostly Cloudy
12:36 AM -20.2 °F -37.3 °F - N/A% 29.55 in 10.0 mi North 6.9 mph - N/A   Overcast
12:56 AM -20.2 °F -35.5 °F - N/A% 29.56 in 10.0 mi North 5.8 mph - N/A   Mostly Cloudy
1:16 AM -20.2 °F -35.5 °F - N/A% 29.56 in 10.0 mi North 5.8 mph - N/A   Scattered Clouds
1:36 AM -20.2 °F -35.5 °F - N/A% 29.57 in 10.0 mi North 5.8 mph - N/A   Mostly Cloudy
1:56 AM -20.2 °F -35.5 °F - N/A% 29.57 in 10.0 mi North 5.8 mph - N/A   Mostly Cloudy
2:16 AM -20.2 °F -33.5 °F - N/A% 29.57 in 10.0 mi North 4.6 mph - N/A   Mostly Cloudy
2:36 AM -22.0 °F -37.7 °F - N/A% 29.58 in 10.0 mi North 5.8 mph - N/A   Partly Cloudy
2:56 AM -22.0 °F -39.4 °F - N/A% 29.58 in 10.0 mi North 6.9 mph - N/A   Clear
3:16 AM -22.0 °F -39.4 °F - N/A% 29.58 in 10.0 mi North 6.9 mph - N/A   Clear
3:36 AM -20.2 °F -35.5 °F - N/A% 29.59 in 10.0 mi North 5.8 mph - N/A   Clear
3:56 AM -20.2 °F -35.5 °F - N/A% 29.59 in 10.0 mi North 5.8 mph - N/A   Clear
4:16 AM -22.0 °F -39.4 °F - N/A% 29.59 in 10.0 mi North 6.9 mph - N/A   Clear
4:36 AM -20.2 °F -35.5 °F - N/A% 29.60 in 10.0 mi North 5.8 mph - N/A   Clear
4:56 AM -22.0 °F -35.6 °F - N/A% 29.61 in 10.0 mi North 4.6 mph - N/A   Clear
5:16 AM -23.8 °F -37.7 °F - N/A% 29.61 in 10.0 mi North 4.6 mph - N/A   Clear
5:36 AM -23.8 °F -41.6 °F - N/A% 29.61 in 10.0 mi North 6.9 mph - N/A   Clear
5:56 AM -23.8 °F -39.8 °F - N/A% 29.62 in 10.0 mi North 5.8 mph - N/A   Partly Cloudy
6:16 AM -23.8 °F -35.0 °F - N/A% 29.63 in 10.0 mi NNW 3.5 mph - N/A   Mostly Cloudy
6:36 AM -23.8 °F -39.8 °F - N/A% 29.63 in 10.0 mi North 5.8 mph - N/A   Mostly Cloudy
6:56 AM -23.8 °F -43.2 °F - N/A% 29.63 in 10.0 mi North 8.1 mph - N/A   Mostly Cloudy
7:16 AM -22.0 °F -37.7 °F - N/A% 29.64 in 10.0 mi North 5.8 mph - N/A   Overcast
7:36 AM -22.0 °F -35.6 °F -29.2 °F 69% 29.65 in 10.0 mi North 4.6 mph - N/A   Overcast
7:56 AM -22.0 °F -35.6 °F - N/A% 29.65 in 10.0 mi NNW 4.6 mph - N/A   Overcast
8:16 AM -22.0 °F -35.6 °F - N/A% 29.65 in 10.0 mi North 4.6 mph - N/A   Overcast
8:36 AM -23.8 °F -35.0 °F - N/A% 29.66 in 10.0 mi North 3.5 mph - N/A   Mostly Cloudy
8:56 AM -23.8 °F - - N/A% 29.66 in 8.0 mi Calm Calm - N/A   Clear
9:16 AM -23.8 °F -37.7 °F - N/A% 29.66 in 10.0 mi North 4.6 mph - N/A   Clear
9:56 AM -23.8 °F -37.7 °F - N/A% 29.67 in 9.0 mi North 4.6 mph - N/A   Clear
10:16 AM -23.8 °F -39.8 °F - N/A% 29.68 in 10.0 mi North 5.8 mph - N/A   Clear
10:56 AM -23.8 °F -37.7 °F - N/A% 29.69 in 10.0 mi North 4.6 mph - N/A   Clear
11:16 AM -25.6 °F -41.9 °F - N/A% 29.69 in 6.0 mi North 5.8 mph - N/A   Clear
11:36 AM -23.8 °F -39.8 °F - N/A% 29.70 in 10.0 mi North 5.8 mph - N/A   Clear
11:56 AM -23.8 °F - - N/A% 29.71 in 10.0 mi Calm Calm - N/A   Clear
12:16 PM -23.8 °F -35.0 °F - N/A% 29.71 in 10.0 mi NNE 3.5 mph - N/A   Clear
12:36 PM -23.8 °F -37.7 °F - N/A% 29.72 in 10.0 mi North 4.6 mph - N/A   Clear
12:56 PM -23.8 °F -39.8 °F - N/A% 29.72 in 10.0 mi North 5.8 mph - N/A   Clear
1:16 PM -23.8 °F -37.7 °F - N/A% 29.73 in 10.0 mi North 4.6 mph - N/A   Clear
1:36 PM -23.8 °F -37.7 °F - N/A% 29.74 in 10.0 mi NNW 4.6 mph - N/A   Clear
1:56 PM -22.0 °F -35.6 °F - N/A% 29.74 in 10.0 mi North 4.6 mph - N/A   Clear
2:16 PM -20.2 °F -35.5 °F -29.2 °F 63% 29.74 in 10.0 mi NNW 5.8 mph - N/A   Clear
2:36 PM -20.2 °F -33.5 °F -29.2 °F 63% 29.75 in 10.0 mi North 4.6 mph - N/A   Clear
2:56 PM -22.0 °F - - N/A% 29.75 in 7.0 mi Calm Calm - N/A   Clear
3:16 PM -22.0 °F - - N/A% 29.76 in 8.0 mi Calm Calm - N/A   Clear
3:36 PM -22.0 °F -33.0 °F - N/A% 29.76 in 8.0 mi ENE 3.5 mph - N/A   Clear
3:56 PM -22.0 °F - - N/A% 29.76 in 10.0 mi Calm Calm - N/A   Clear
4:16 PM -20.2 °F - -29.2 °F 63% 29.77 in 10.0 mi Calm Calm - N/A   Clear
4:36 PM -20.2 °F -38.8 °F -27.4 °F 69% 29.76 in 10.0 mi NNE 8.1 mph - N/A   Clear
4:56 PM -20.2 °F - -29.2 °F 63% 29.77 in 10.0 mi Calm Calm - N/A   Clear
5:16 PM -20.2 °F - - N/A% 29.78 in 5.0 mi Calm Calm - N/A   Clear
5:36 PM -20.2 °F - -29.2 °F 63% 29.78 in 8.0 mi Calm Calm - N/A   Clear
5:56 PM -20.2 °F - - N/A% 29.78 in 10.0 mi Calm Calm - N/A   Clear
6:16 PM -20.2 °F - -29.2 °F 63% 29.78 in 10.0 mi Calm Calm - N/A   Clear
6:36 PM -18.4 °F -31.4 °F -27.4 °F 63% 29.78 in 10.0 mi NNW 4.6 mph - N/A   Clear
6:56 PM -20.2 °F - -29.2 °F 63% 29.79 in 10.0 mi Calm Calm - N/A   Clear
7:16 PM -18.4 °F -28.9 °F -29.2 °F 58% 29.79 in 10.0 mi North 3.5 mph - N/A   Clear
7:36 PM -18.4 °F - -25.6 °F 70% 29.80 in 10.0 mi Calm Calm - N/A   Clear
7:56 PM -20.2 °F - - N/A% 29.81 in 10.0 mi Calm Calm - N/A   Clear
8:16 PM -18.4 °F -33.4 °F -27.4 °F 63% 29.81 in 10.0 mi NNE 5.8 mph - N/A   Clear
8:36 PM -18.4 °F -28.9 °F -27.4 °F 63% 29.81 in 10.0 mi North 3.5 mph - N/A   Clear
8:56 PM -20.2 °F - - N/A% 29.82 in 10.0 mi Calm Calm - N/A   Clear
9:16 PM -20.2 °F -30.9 °F - N/A% 29.82 in 6.0 mi North 3.5 mph - N/A   Clear
9:36 PM -20.2 °F -33.5 °F - N/A% 29.82 in 6.0 mi North 4.6 mph - N/A   Clear
9:56 PM -20.2 °F - -29.2 °F 63% 29.83 in 7.0 mi Calm Calm - N/A   Clear
10:16 PM -22.0 °F - - N/A% 29.83 in 9.0 mi Calm Calm - N/A   Clear
10:36 PM -23.8 °F - - N/A% 29.84 in 10.0 mi Calm Calm - N/A   Clear
10:56 PM -23.8 °F - - N/A% 29.84 in 10.0 mi Calm Calm - N/A   Clear
11:16 PM -23.8 °F - - N/A% 29.85 in 10.0 mi Calm Calm - N/A   Clear
11:36 PM -23.8 °F - - N/A% 29.86 in 10.0 mi Calm Calm - N/A   Clear
11:56 PM -23.8 °F - - N/A% 29.86 in 10.0 mi Calm Calm - N/A   Clear